Location: DARK SKY Beskydy - Park tmavé oblohy, www.darkskybeskydy.cz
(49.4926°N, 18.5016°E)
Time: 11:12:31
(UTC+02:00)

BlueWalker 3 - Pass Details

Date: 22 June 2024
Orbit: 480 x 491 km, 53.2° (Epoch: 23 July)

Event Time Altitude Azimuth Distance (km) Brightness Sun altitude
Rises 23:43:33 0° 279° (W) 2,539 5.8 -15.7°
Reaches altitude 10° 23:45:47 10° 286° (WNW) 1,658 5.0 -15.8°
Maximum altitude 23:49:24 45° 0° (N) 662 3.0 -15.9°
Drops below altitude 10° 23:53:00 10° 75° (ENE) 1,656 4.6 -16.1°
Sets 23:55:13 0° 81° (E) 2,536 5.5 -16.1°
